Location: ?
(35.4064°N, 139.3593°E)
Time: 15:28:21
(UTC+00:00)

ACS3 Solar Sail - Pass Details

Date: 24 June 2024
Orbit: 993 x 1023 km, 97.4° (Epoch: 19 July)

Event Time Altitude Azimuth Distance (km) Brightness Sun altitude
Exits shadow 13:38:31 16° 245° (WSW) 2,335 6.7 -29.1°
Maximum altitude 13:40:35 19° 269° (W) 2,182 6.7 -29.2°
Drops below altitude 10° 13:44:49 10° 312° (NW) 2,764 7.8 -29.5°
Sets 13:48:09 0° 330° (NNW) 3,715 8.9 -29.7°
